User: anonymous   Login
Location: Mentone
(34.5413°N, 85.5351°W)
Time: 17:58:56
(UTC-06:00)
Language:

A-11 Canister half - Orbit

View from above orbital plane
View from above orbital plane
View from above satellite
View from above satellite

Ground track
Ground track

The orbit data is extracted from the following two-line orbital elements,

1    53U 60009E   17054.85741102 -.00000086 +00000-0 +00000-0 0  9993
2    53 047.2776 029.0090 0096407 106.8327 254.3062 12.17193589521237
Epoch (UTC): 23 February 2017 20:34:40
Eccentricity: 0.0096407
inclination: 47.2776°
perigee height: 1528 km
apogee height: 1682 km
right ascension of ascending node: 29.0090°
argument of perigee: 106.8327°
revolutions per day: 12.17193589
mean anomaly at epoch: 254.3062°
orbit number at epoch: 52123

The dashed part of the orbit path shows where the satellite is in the earth's shadow,  

DLR